Regional Weather Roundup
Issued by NWS

Home | Current Version | Previous Version | Graphics & Text | Print | Product List | Glossary Off
Versions: 1 2 3 4 5 6 7 8 9 10 11 12 13 14 15 16 17 18 19 20 21 22 23 24 25 26 27 28 29 30 31 32 33 34 35 36 37 38 39 40 41 42 43 44 45 46 47 48 49 50

000
ASUS43 KMKX 011320
RWRWI

WISCONSIN REGIONAL WEATHER ROUNDUP
NATIONAL WEATHER SERVICE MILWAUKEE/SULLIVAN WI
700 AM CST SUN MAR 01 2015

NOTE: "FAIR" INDICATES FEW OR NO CLOUDS BELOW 12,000 FEET WITH NO
SIGNIFICANT WEATHER AND/OR OBSTRUCTIONS TO VISIBILITY.

WIZ001-002-006>008-014>016-023>028-011400-
NORTHWEST WISCONSIN

CITY           SKY/WX    TMP DP  RH WIND       PRES   REMARKS
SUPERIOR ARPT  CLOUDY    15  10  79 SW8       30.17F WCI   4
ASHLAND        CLOUDY    14   8  77 SW8       30.18F WCI   3
HAYWARD        CLOUDY    13   8  81 SW7       30.15F HAZE    WCI   3
SIREN          CLOUDY    16  11  83 SW8       30.18F WCI   5
CUMBERLAND     FLURRIES  14  10  85 S7        30.17F WCI   4
RICE LAKE      CLOUDY    14  10  85 S6        30.21F WCI   5
CHETEK         FLURRIES  13   9  86 S7        30.21F WCI   2
LADYSMITH      FLURRIES  11   8  85 S5        30.21F WCI   3
EAU CLAIRE     CLOUDY    13   8  81 S9        30.23F WCI   1
MENOMONIE      CLOUDY    14   9  83 CALM      30.23F
NEW RICHMOND   FLURRIES  15  11  85 SW8       30.20F WCI   4
OSCEOLA        CLOUDY    16  12  86 S7        30.22F WCI   6
$$

WIZ003>005-009-010-017-018-011400-
NORTH CENTRAL WISCONSIN

CITY           SKY/WX    TMP DP  RH WIND       PRES   REMARKS
MANITOWISH WTR LGT SNOW  10   5  82 SW8       30.13F WCI  -3
ARBOR VITAE    LGT SNOW  11   6  80 SW7       30.15S WCI   1
WOODRUFF       LGT SNOW  11   6  80 SW7       30.15S WCI   1
RHINELANDER    LGT SNOW   8   2  76 SW9       30.17F WCI  -5
EAGLE RIVER    FLURRIES   8   1  73 SW7       30.14F WCI  -3
LAND O LAKES   FLURRIES   7   2  80 S3        30.13F
PHILLIPS       LGT SNOW  10   6  84 S7        30.16F WCI  -2
TOMAHAWK       LGT SNOW   8   3  80 CALM      30.19F
MEDFORD        LGT SNOW   9   5  85 SW6       30.19F WCI  -1
MERRILL        LGT SNOW   9   4  79 SW6       30.22F WCI  -1
$$

WIZ029-030-035-036-043>047-011400-
CENTRAL WISCONSIN

CITY           SKY/WX    TMP DP  RH WIND       PRES   REMARKS
WAUSAU         CLOUDY     9   4  80 SW8       30.23F HAZE    WCI  -3
MOSINEE        CLOUDY     9   5  85 S6        30.25F WCI  -1
MARSHFIELD     LGT SNOW  10   5  80 SW9       30.23F WCI  -3
STEVENS POINT  FLURRIES   8   4  82 S6        30.27F WCI  -2
WAUPACA        PTCLDY     8   3  80 CALM      30.31S
WAUTOMA        PTCLDY     1  -4  79 CALM      30.32S
WISC RAPIDS    MOCLDY     8   3  80 S5        30.29F WCI   0
CAMP DOUGLAS   PTCLDY     7   7 100 SE5       30.29F WCI  -2
$$

WIZ011>013-019>022-031-037>040-048>050-011400-
NORTHEAST WISCONSIN

CITY           SKY/WX    TMP DP  RH WIND       PRES   REMARKS
ANTIGO         CLOUDY     7   3  83 SW9       30.20F WCI  -7
SHAWANO        CLEAR     11   4  72 SW3       30.29F
OCONTO         PTCLDY     9   4  78 SW5       30.30F WCI   1
STURGEON BAY   PTCLDY    10   3  72 SW8       30.30F WCI  -1
GREEN BAY      MOCLDY     9   6  88 S3        30.31F FOG
MANITOWOC      PTCLDY     9   7  92 CALM      30.33F
APPLETON       MOCLDY     9   3  78 SW6       30.30F WCI  -1
CLINTONVILLE   PTCLDY    10   3  72 SW3       30.29F
OSHKOSH        MOCLDY     9   6  88 S3        30.31F FOG
$$

WIZ032>034-041-042-053>061-011400-
SOUTHWEST WISCONSIN

CITY           SKY/WX    TMP DP  RH WIND       PRES   REMARKS
LA CROSSE      CLOUDY    12   7  80 S7        30.31F WCI   1
SPARTA         PTCLDY     3  -1  85 CALM      30.30F
VIROQUA        PTCLDY     8   6  91 S6        30.26F WCI  -2
BOSCOBEL       CLOUDY     7   2  80 CALM      30.35F
PRAIRIE DU CHI FLURRIES  10   5  80 CALM      30.34F
PLATTEVILLE    CLOUDY    12   9  89 CALM      30.32S VSB<1/4
$$

WIZ056-057-062-063-064-067-068-011400-
SOUTH CENTRAL WISCONSIN

CITY           SKY/WX    TMP DP  RH WIND       PRES   REMARKS
REEDSBURG      FLURRIES  11   8  89 SW5       30.31S WCI   3
BARABOO/DELLS  LGT SNOW  10   8  89 SW3       30.31S
LONE ROCK      MOCLDY     6   3  87 CALM      30.34F FOG
MINERAL POINT  LGT SNOW  14  10  85 S3        30.31S VSB 3/4
MADISON        CLOUDY    14  10  84 CALM      30.32F
MIDDLETON      PTCLDY    15  11  83 CALM      30.32F
WATERTOWN      LGT SNOW  13  11  94 CALM      30.33S
MONROE         LGT SNOW  14  12  92 W5        30.31S WCI   6
JANESVILLE     LGT SNOW  16  12  86 CALM      30.35
$$

WIZ051-052-058>065-066-070>072-011400-
SOUTHEAST WISCONSIN

CITY           SKY/WX    TMP DP  RH WIND       PRES   REMARKS
MILWAUKEE      CLOUDY    14  10  84 S3        30.35F FOG
WAUKESHA       MOCLDY     7   5  92 S5        30.34F FOG     WCI  -2
MILWAUKEE/TIMM MOCLDY    10   9  92 CALM      30.35F FOG
RACINE         CLOUDY    14  10  84 SW7       30.37F FOG     WCI   4
BURLINGTON     CLOUDY     9   7  91 CALM      30.35S FOG
KENOSHA        CLOUDY    14  12  92 SW5       30.35F FOG     WCI   6
FOND DU LAC    MOCLDY    10   6  84 S3        30.32F FOG
SHEBOYGAN      PTCLDY    11   8  88 S5        30.32F WCI   3
WEST BEND      MOCLDY    14  10  85 SW3       30.32F
JUNEAU         MOCLDY    10   7  91 S5        30.32F WCI   1
$$

LSZ147-162-011400-
LAKE SUPERIOR

STATION/POSITION TIME  TEMP    WIND        PRES    WAVE
                       AIR SEA DIR/SP/G            HT/PER
                 (UTC) (F)     (DEG/KT/KT) (MB)    (FT/S)
DEVILS ISLAND    1300   16     220/ 18/ 22 1022.2F
PORT WING        1200   15     210/  7/ 13 1022.0F
SAXON HARBOR     1200   16     200/ 10/ 16 1022.0F
$$

LMZ867-665-643>646-011400-
LAKE MICHIGAN

STATION/POSITION TIME  TEMP    WIND        PRES    WAVE
                       AIR SEA DIR/SP/G            HT/PER
                 (UTC) (F)     (DEG/KT/KT) (MB)    (FT/S)
NORTHPORT PIER   1306   12     200/  5/  9 1025.7F
KEWAUNEE LAKESHO 1200   12     230/  3/  5 1026.6F
SHEBOYGAN LAKESH 1300   15     210/  6/  7 1028.7F
PORT WASHINGTON  1240   14     260/  3/  3 1028.1F
MILWAUKEE LAKESH 1300   15     210/  6/  7   N/A
KENOSHA   LAKESH 1300   15     240/  4/  8 1028.1F
$$

TC  - TEMPERATURE IN CELSIUS
VSB - VISIBILITY IN STATUTE MILES
WCI - WIND CHILL INDEX
HX  - HEAT INDEX



USA.gov is the U.S. government's official web portal to all federal, state and local government web resources and services.